SCP
0 0 0 0 0 0 0 0 0 0 0 0 0 0 0 0 0 0 0 0 0 0 0 0 0 0 0 0 0 0 0 0 0 0 0 0 0 0 0 0 0 0 0 0 0 0 0 0 0 0 0 0 0 0
0 0 0 0 0 0 0 0 0 0 0 0 0 0 0 0 0 0 0 0 0 0 0 0 0 0 0 0 0 0 0 0 0 0 0 0 0 0 0 0 0 0 0 0 0 0 0 0 0 0 0 0 0 0
0 0 0 0 0 0 0 0 0 0 0 0 0 0 0 0 0 0 0 0 0 0 0 0 0 0 0 0 0 0 0 0 0 0 0 0 0 0 0 0 0 0 0 0 0 0 0 0 0 0 0 0 0 0
0 0 0 0 0 0 0 0 0 0 0 0 0 0 0 0 0 0 0 0 0 0 0 0 0 0 0 0 0 0 0 0 0 0 0 0 0 0 0 0 0 0 0 0 0 0 0 0 0 0 0 0 0 0
0 0 0 0 0 0 0 0 0 0 0 0 0 0 0 0 0 0 0 0 0 0 0 0 0 0 0 0 0 0 0 0 0 0 0 0 0 0 0 0 0 0 0 0 0 0 0 0 0 0 0 0 0 0
0 0 0 0 0 0 0 0 0 0 0 0 0 0 0 0 0 0 0 0 0 0 0 0 0 0 0 0 0 0 0 0 0 0 0 0 0 0 0 0 0 0 0 0 0 0 0 0 0 0 0 0 0 0
0 0 0 0 0 0 0 0 0 0 0 0 0 0 0 0 0 0 0 0 0 0 0 0 0 0 0 0 0 0 0 0 0 0 0 0 0 0 0 0 0 0 0 0 0 0 0 0 0 0 0 0 0 0
0 0 0 0 0 0 0 0 0 0 0 0 0 0 0 0 0 0 0 0 0 0 0 0 0 0 0 0 0 0 0 0 0 0 0 0 0 0 0 0 0 0 0 0 0 0 0 0 0 0 0 0 0 0
0 0 0 0 0 0 0 0 0 0 0 0 0 0 0 0 0 0 0 0 0 0 0 0 0 0 0 0 0 0 0 0 0 0 0 0 0 0 0 0 0 0 0 0 0 0 0 0 0 0 0 0 0 0
0 0 0 0 0 0 0 0 0 0 0 0 0 0 0 0 0 0 0 0 0 0 0 0 0 0 0 0 0 0 0 0 0 0 0 0 0 0 0 0 0 0 0 0 0 0 0 0 0 0 0 0 0 0
0 0 0 0 0 0 0 0 0 0 0 0 0 0 0 0 0 0 0 0 0 0 0 0 0 0 0 0 0 0 0 0 0 0 0 0 0 0 0 0 0 0 0 0 0 0 0 0 0 0 0 0 0 0
0 0 0 0 0 0 0 0 0 0 0 0 0 0 0 0 0 0 0 0 0 0 0 0 0 0 0 0 0 0 0 0 0 0 0 0 0 0 0 0 0 0 0 0 0 0 0 0 0 0 0 0 0 0
0 0 0 0 0 0 0 0 0 0 0 0 0 0 0 0 0 0 0 0 0 0 0 0 0 0 0 0 0 0 0 0 0 0 0 0 0 0 0 0 0 0 0 0 0 0 0 0 0 0 0 0 0 0
0 0 0 0 0 0 0 0 0 0 0 0 0 0 0 0 0 0 0 0 0 0 0 0 0 0 0 0 0 0 0 0 0 0 0 0 0 0 0 0 0 0 0 0 0 0 0 0 0 0 0 0 0 0
0 0 0 0 0 0 0 0 0 0 0 0 0 0 0 0 0 0 0 0 0 0 0 0 0 0 0 0 0 0 0 0 0 0 0 0 0 0 0 0 0 0 0 0 0 0 0 0 0 0 0 0 0 0
0 0 0 0 0 0 0 0 0 0 0 0 0 0 0 0 0 0 0 0 0 0 0 0 0 0 0 0 0 0 0 0 0 0 0 0 0 0 0 0 0 0 0 0 0 0 0 0 0 0 0 0 0 0
0 0 0 0 0 0 0 0 0 0 0 0 0 0 0 0 0 0 0 0 0 0 0 0 0 0 0 0 0 0 0 0 0 0 0 0 0 0 0 0 0 0 0 0 0 0 0 0 0 0 0 0 0 0
0 0 0 0 0 0 0 0 0 0 0 0 0 0 0 0 0 0 0 0 0 0 0 0 0 0 0 0 0 0 0 0 0 0 0 0 0 0 0 0 0 0 0 0 0 0 0 0 0 0 0 0 0 0
0 0 0 0 0 0 0 0 0 0 0 0 0 0 0 0 0 0 0 0 0 0 0 0 0 0 0 0 0 0 0 0 0 0 0 0 0 0 0 0 0 0 0 0 0 0 0 0 0 0 0 0 0 0
0 0 0 0 0 0 0 0 0 0 0 0 0 0 0 0 0 0 0 0 0 0 0 0 0 0 0 0 0 0 0 0 0 0 0 0 0 0 0 0 0 0 0 0 0 0 0 0 0 0 0 0 0 0
0 0 0 0 0 0 0 0 0 0 0 0 0 0 0 0 0 0 0 0 0 0 0 0 0 0 0 0 0 0 0 0 0 0 0 0 0 0 0 0 0 0 0 0 0 0 0 0 0 0 0 0 0 0
0 0 0 0 0 0 0 0 0 0 0 0 0 0 0 0 0 0 0 0 0 0 0 0 0 0 0 0 0 0 0 0 0 0 0 0 0 0 0 0 0 0 0 0 0 0 0 0 0 0 0 0 0 0
0 0 0 0 0 0 0 0 0 0 0 0 0 0 0 0 0 0 0 0 0 0 0 0 0 0 0 0 0 0 0 0 0 0 0 0 0 0 0 0 0 0 0 0 0 0 0 0 0 0 0 0 0 0
0 0 0 0 0 0 0 0 0 0 0 0 0 0 0 0 0 0 0 0 0 0 0 0 0 0 0 0 0 0 0 0 0 0 0 0 0 0 0 0 0 0 0 0 0 0 0 0 0 0 0 0 0 0
0 -0 0 0 0 0 0 0 0 0 0 0 0 0 0 0 0 0 0 0 0 0 0 0 0 0 0 0 0 0 0 0 0 0 0 0 0 0 0 0 0 0 0 0 0 0 0 0 0 0 0 0 0 -0
-0 0 0 0 0 0 0 0 0 0 0 0 0 0 0 0 0 0 0 0 0 0 0 0 0 0 0 0 0 0 0 0 0 0 0 0 0 0 0 0 0 0 0 0 0 0 0 0 0 0 0 0 -0 0
-0 0 0 0 0 0 0 0 0 0 0 0 0 0 0 0 0 0 0 0 0 0 0 0 0 0 0 0 0 0 0 0 0 0 0 0 0 0 0 0 0 0 0 0 0 0 0 0 0 0 0 0 0 0
0 0 0 -0 0 0 0 0 0 0 0 0 0 0 0 0 0 0 0 0 0 0 0 0 0 0 0 0 0 0 0 0 0 0 0 0 0 0 0 0 0 0 0 0 0 0 0 0 0 0 0 0 0 0
0 0 0 0 0 0 0 0 0 0 0 0 0 0 0 0 0 0 0 0 0 0 0 0 0 0 0 0 0 0 0 0 0 0 0 0 0 0 0 0 0 0 0 0 0 0 0 0 0 0 0 0 0 0
0 0 0 0 0 0 0 0 0 0 0 0 0 0 0 0 0 0 0 0 0 0 0 0 0 0 0 0 0 0 0 0 0 0 0 0 0 0 0 0 0 0 0 0 0 0 0 0 0 0 0 0 0 0
0 0 0 0 0 0 0 0 0 0 0 0 0 0 0 0 0 0 0 0 0 0 0 0 0 0 0 0 0 0 0 0 0 0 0 0 0 0 0 0 0 0 0 0 0 0 0 0 0 0 0 0 0 0
0 0 0 0 0 0 0 0 0 0 0 0 0 0 0 0 0 0 0 0 0 0 0 0 0 0 0 0 0 0 0 0 0 0 0 0 0 0 0 0 0 0 0 0 0 0 0 0 0 0 0 0 0 0
0 0 0 0 0 0 0 0 0 0 0 0 0 0 0 0 0 0 0 0 0 0 0 0 0 0 0 0 0 0 0 0 0 0 0 0 0 0 0 0 0 0 0 0 0 0 0 0 0 0 0 0 0 0
Wind_Speed_500mb
51 57 54 55 54 46 57 58 43 41 48 46 45 46 41 37 35 35 30 28 35 14 13 15 19 19 20 26 9 18 12 1 5 6 7 7 6 11 4 7 14 14 14 9 5 3 15 22 10 13 14 13 12 18
57 46 44 47 50 58 54 57 53 50 54 53 46 46 46 40 31 45 49 42 40 27 9 19 41 31 25 38 35 47 14 17 22 6 2 6 1 2 9 7 3 2 14 10 20 14 13 34 20 32 34 24 24 29
64 62 58 50 42 39 44 47 45 55 51 44 53 54 52 44 41 45 51 36 35 27 29 50 48 42 40 36 36 26 16 24 22 18 16 7 7 7 7 10 3 9 8 8 2 12 27 49 58 59 54 54 63 63
59 52 56 63 59 51 45 36 35 39 40 49 52 45 41 47 49 47 55 53 46 11 9 24 40 43 55 59 56 51 35 39 28 37 9 5 5 20 8 10 13 21 11 16 18 32 45 54 66 73 69 62 58 58
61 56 58 54 59 64 58 56 45 35 35 33 38 42 50 46 45 49 55 66 63 47 8 12 24 39 38 55 73 69 60 43 38 14 7 9 11 6 4 2 15 43 35 23 27 48 37 42 56 58 48 47 48 54
59 65 55 56 54 57 53 48 46 43 41 46 45 36 34 35 37 39 38 68 64 56 17 7 17 29 44 54 66 82 87 65 44 18 10 13 41 23 8 10 40 66 67 73 54 70 64 69 68 63 57 64 65 58
57 57 54 48 48 49 49 46 44 42 40 37 37 39 39 38 39 48 10 5 37 65 19 5 7 18 50 60 62 57 58 45 52 29 20 22 14 25 7 20 60 59 61 65 68 67 53 69 51 63 53 52 48 41
53 55 52 45 41 39 40 41 42 40 36 36 38 39 37 38 40 53 60 49 13 50 18 5 5 4 31 24 18 36 28 32 27 22 12 20 16 16 13 36 63 60 65 68 73 74 74 69 56 53 52 47 44 44
46 54 46 41 39 40 38 35 32 31 33 32 32 33 34 40 42 47 41 43 46 35 8 9 9 7 28 10 14 17 22 7 16 9 10 18 8 14 27 49 49 64 57 67 63 58 56 58 58 47 40 40 42 44
43 39 41 41 36 31 30 29 31 28 27 24 27 20 15 24 35 20 27 24 43 41 27 8 20 9 30 20 11 16 13 6 6 11 17 11 19 68 65 67 70 69 61 48 46 45 45 45 45 40 40 38 38 38
31 39 37 34 31 31 32 35 36 33 26 30 22 18 16 22 35 24 16 17 17 8 24 28 45 11 24 9 8 20 7 7 7 9 17 8 11 38 75 78 83 78 71 56 51 49 44 38 35 33 32 31 30 30
35 33 26 24 23 20 26 29 35 42 31 24 15 17 22 21 13 12 11 4 9 13 16 11 20 38 24 17 7 15 10 10 12 11 8 7 23 44 49 62 64 58 53 51 48 42 36 32 28 26 26 27 27 27
5 18 22 23 24 26 29 31 32 33 34 29 17 12 12 14 13 16 13 4 4 7 21 25 4 26 16 18 7 10 15 13 15 10 9 11 17 44 59 56 50 47 45 43 38 35 31 27 24 23 24 24 23 23
8 13 18 23 27 29 33 38 39 37 30 16 12 13 11 7 9 7 9 11 14 20 47 41 15 8 13 10 6 9 7 7 10 9 14 7 38 48 50 50 46 44 39 35 32 29 26 23 21 21 21 20 20 22
9 15 17 20 24 27 32 37 39 41 21 13 10 9 10 7 4 8 10 13 14 22 40 14 8 14 4 7 8 5 7 8 11 11 8 27 45 48 48 45 41 37 34 32 29 25 21 18 16 15 16 18 20 23
10 9 16 22 30 31 31 32 37 46 14 18 15 4 7 5 8 6 1 6 17 30 19 8 6 7 10 8 11 13 11 13 10 7 7 12 23 34 36 33 29 28 28 27 25 21 19 16 13 12 13 16 19 21
9 3 11 21 22 24 30 33 30 19 15 10 4 17 13 12 10 8 4 2 15 24 6 5 10 15 4 5 8 8 9 7 4 3 7 7 17 22 26 26 26 25 25 24 22 19 14 10 7 8 12 15 17 19
8 3 6 10 15 19 21 23 16 6 6 7 2 3 8 14 20 15 21 24 21 10 3 3 6 7 7 9 6 4 5 10 11 7 12 14 14 17 17 18 21 20 19 18 16 15 12 7 5 6 10 12 13 14
11 7 15 13 12 11 10 5 4 6 3 5 8 6 3 5 13 15 16 19 19 13 9 5 6 4 2 5 5 3 8 6 10 11 11 15 16 16 18 19 17 18 17 15 12 8 5 3 3 4 6 7 7 8
5 18 16 12 14 8 7 7 6 7 4 4 10 8 1 5 11 11 10 12 14 6 3 3 1 4 4 3 5 6 4 8 15 18 14 18 20 19 18 16 15 13 11 9 7 6 4 3 2 1 1 3 5 7
20 23 11 13 9 7 10 6 9 8 8 7 9 5 2 6 5 9 7 9 5 9 4 7 5 6 5 4 6 9 10 12 6 4 7 22 22 20 15 14 12 10 8 7 6 6 7 5 3 0 2 5 7 8
19 18 13 9 7 8 12 11 9 8 5 7 6 5 8 4 8 8 7 13 11 9 8 5 2 4 6 7 11 12 12 12 12 11 11 14 18 17 16 12 11 11 11 10 8 6 5 4 3 3 4 5 6 7
24 16 8 8 8 10 6 7 5 6 5 1 3 6 5 4 7 5 9 10 9 16 11 5 2 4 6 7 9 9 9 10 11 12 14 15 17 16 15 16 16 12 9 6 5 4 4 4 4 4 3 4 6 8
15 9 12 11 16 4 4 7 6 6 6 6 4 4 5 4 10 5 7 7 16 20 13 7 7 6 7 7 9 11 12 14 15 19 23 19 21 24 21 15 11 8 5 4 3 3 4 3 2 2 4 7 10 11
8 20 14 13 15 9 8 6 6 6 5 5 5 6 6 10 5 7 4 10 23 26 17 10 10 6 4 7 11 14 16 18 19 21 22 20 17 15 12 8 5 2 1 2 4 4 3 2 3 6 9 12 13 13
15 18 11 4 10 6 6 4 7 5 4 5 3 4 4 2 7 5 3 21 17 22 16 11 14 13 12 16 19 22 23 21 18 15 15 13 10 6 4 3 3 1 1 3 4 5 6 7 9 12 14 16 18 21
11 9 14 16 9 5 6 5 2 4 8 8 6 8 5 8 7 4 10 25 23 18 7 7 12 15 18 19 19 17 15 14 13 10 10 8 5 3 1 2 3 3 3 4 5 7 9 13 16 18 21 21 22 26
10 20 6 23 11 13 5 5 7 7 5 10 4 10 6 6 2 14 12 25 19 10 10 12 14 14 14 13 13 14 13 11 10 10 11 9 6 5 4 3 3 4 4 6 8 11 14 18 21 25 29 33 33 32
11 25 13 8 8 13 11 6 2 5 9 7 4 5 5 10 24 28 22 15 12 9 10 11 13 12 10 11 11 10 8 8 6 7 6 5 3 3 2 5 8 10 12 14 17 20 24 28 31 35 40 43 46 49
16 26 11 9 7 8 8 9 5 6 9 10 12 22 25 24 50 53 35 18 13 14 13 11 10 11 10 7 7 7 6 6 7 8 6 6 8 9 11 14 17 20 25 28 30 32 34 39 43 46 50 54 57 58
19 18 5 10 6 7 11 9 10 12 9 11 15 14 10 7 26 65 50 28 23 21 19 20 17 14 10 9 9 8 8 7 6 5 9 13 17 22 25 29 31 34 36 40 43 46 49 51 53 55 57 59 58 57
19 15 8 7 5 9 13 13 6 6 7 7 8 6 7 10 12 32 59 51 48 51 49 42 37 33 23 19 16 11 8 14 19 24 27 33 38 43 46 47 47 49 49 50 51 52 53 56 58 60 62 62 61 61
9 11 8 5 5 6 16 12 3 6 7 6 9 10 12 10 11 15 24 39 39 42 41 40 38 29 22 19 17 22 25 27 29 33 38 43 47 51 52 52 52 52 54 56 58 59 60 60 61 61 61 62 62 62
Wind_Direction_500mb
249 239 237 230 231 231 233 236 229 234 243 239 227 212 206 206 202 203 213 205 202 213 226 208 205 164 153 162 133 152 92 339 64 129 142 207 165 221 131 211 178 161 168 202 94 181 270 195 122 166 216 179 211 226
240 233 236 242 242 225 224 221 226 227 228 228 228 224 220 217 222 215 219 225 217 227 255 225 228 217 210 206 178 168 183 159 164 121 196 113 233 56 164 228 186 276 201 184 188 204 213 186 204 248 253 236 248 255
233 241 238 237 239 237 232 236 229 221 223 227 228 227 217 217 222 219 226 209 204 231 255 255 242 231 215 208 219 182 207 182 188 186 163 189 200 119 163 241 154 266 192 212 47 215 240 260 265 268 263 259 275 279
227 231 234 235 235 237 233 236 233 234 233 229 226 225 227 229 232 224 224 236 230 197 228 268 252 240 233 222 216 214 223 209 209 192 160 149 179 187 211 222 198 225 161 227 255 258 260 264 264 268 270 274 276 281
232 231 231 227 228 232 236 231 227 227 230 231 237 237 230 229 231 230 229 227 230 204 208 235 241 238 227 219 216 216 218 214 191 159 187 204 205 147 248 146 235 234 236 240 251 251 237 252 263 272 266 268 281 282
231 232 230 227 223 223 223 219 223 228 233 235 239 241 242 239 234 233 234 234 229 227 227 206 226 209 216 216 215 217 220 216 204 191 195 226 240 189 202 227 242 244 246 245 246 257 260 259 266 274 268 278 284 277
226 224 224 227 229 226 220 218 223 224 228 233 235 234 235 238 229 218 222 196 210 218 215 214 228 211 217 214 218 218 219 212 216 221 219 218 204 193 225 243 252 251 249 255 258 257 259 259 259 272 269 274 268 259
215 216 216 218 225 223 220 219 215 221 225 233 238 236 234 234 235 234 236 239 212 198 212 237 198 164 179 184 178 198 200 206 205 214 225 215 222 214 241 243 252 254 259 258 253 259 258 263 262 259 262 258 260 266
218 196 205 209 211 214 217 227 230 230 233 234 232 231 231 228 228 236 231 234 244 219 222 178 162 217 166 139 155 160 184 208 195 209 208 170 190 217 222 237 243 247 243 253 263 262 259 257 257 255 254 258 260 262
196 195 201 203 202 200 206 212 218 216 221 212 209 200 213 215 218 198 195 205 203 209 214 188 188 180 164 159 159 138 183 196 210 226 160 214 228 235 240 248 252 256 256 259 251 248 246 244 248 252 263 263 262 263
189 190 181 175 196 210 223 221 214 221 215 202 196 208 194 166 169 182 197 205 188 201 190 201 190 148 178 154 166 192 177 182 204 234 181 214 243 236 240 243 249 254 261 261 254 252 259 260 260 254 254 256 256 254
179 162 172 191 205 218 217 211 206 204 199 194 182 189 174 194 206 205 185 219 175 206 183 157 180 191 164 164 142 179 182 190 218 144 159 226 243 240 237 239 243 246 251 253 254 255 253 250 248 243 242 244 246 250
164 179 199 210 222 222 217 206 201 203 193 190 196 193 191 202 223 185 190 214 162 170 161 158 156 158 150 176 175 180 203 207 117 187 218 223 222 225 227 229 228 231 234 237 241 242 241 239 236 238 239 242 250 259
224 229 232 231 227 222 215 210 197 193 189 194 184 195 202 210 232 186 196 203 198 177 170 172 128 147 163 179 182 211 179 129 201 206 225 226 213 220 215 213 214 216 221 226 227 226 226 224 225 226 233 245 259 270
226 228 229 233 232 229 222 212 206 201 193 186 198 228 210 246 139 158 178 149 165 198 158 128 109 149 153 199 187 107 181 222 208 223 223 224 223 212 199 199 210 216 215 212 212 211 212 215 218 230 246 262 273 282
242 257 225 233 230 225 226 221 216 217 204 193 210 129 155 91 329 8 256 146 142 157 157 143 162 184 200 195 172 201 168 216 237 217 274 206 184 184 190 191 194 199 201 199 198 203 204 204 222 247 269 285 295 301
12 204 230 218 216 219 226 218 222 214 216 196 176 186 145 141 145 143 164 161 163 164 163 155 195 203 121 195 187 176 209 226 299 110 127 127 156 169 178 186 186 188 190 191 191 192 196 209 234 272 292 300 305 310
269 279 18 215 215 203 208 201 214 200 85 57 149 37 172 172 157 159 167 164 170 204 241 233 160 184 206 186 232 214 120 112 109 118 119 144 153 161 167 181 175 176 179 182 185 189 193 211 258 285 296 309 315 320
295 263 222 219 204 157 151 148 163 108 96 112 108 124 208 165 163 176 190 195 188 178 178 166 246 221 248 26 59 70 108 190 189 175 148 142 144 155 161 163 164 168 171 173 181 196 202 226 266 303 318 324 320 321
259 244 240 196 178 157 114 80 103 96 97 114 109 118 121 101 125 130 145 163 169 172 190 190 70 36 30 129 109 118 140 150 156 137 149 160 159 158 156 156 162 166 174 182 188 190 177 177 186 177 19 359 340 329
267 231 231 172 146 95 91 82 71 84 113 100 107 121 119 106 87 72 85 116 111 39 59 40 77 103 109 114 124 128 140 148 171 169 180 175 165 159 163 168 167 173 182 180 175 176 172 172 165 131 328 324 322 323
180 174 157 153 100 84 82 59 81 94 93 96 86 64 48 36 30 31 48 55 52 27 24 22 100 105 115 123 124 128 119 118 106 105 118 147 166 174 177 171 172 168 162 155 159 177 205 228 259 294 298 299 312 317
137 139 90 70 91 58 46 65 78 44 81 347 85 61 26 25 11 62 77 64 60 8 7 21 80 128 130 124 124 124 121 113 117 125 125 135 143 148 150 153 145 143 144 157 184 215 250 263 269 273 288 309 317 321
109 66 41 45 36 68 65 46 53 67 62 37 63 61 359 312 353 57 80 54 12 13 22 47 64 76 107 117 124 126 127 128 128 124 119 120 130 129 129 135 134 137 154 200 216 244 239 230 241 289 310 314 317 321
86 13 20 8 21 28 42 23 12 52 50 337 63 23 341 346 65 55 62 357 5 14 22 40 39 42 91 113 121 122 121 119 122 124 121 117 112 116 117 117 121 127 224 261 241 231 226 241 284 300 307 312 314 315
69 11 39 322 357 59 0 58 31 15 358 68 38 297 338 41 63 46 315 348 352 4 14 38 50 63 86 109 114 114 113 114 113 115 114 115 116 121 132 154 172 242 311 307 279 244 246 265 287 299 305 308 311 313
54 343 13 26 0 332 36 16 354 27 48 28 350 348 358 65 55 300 353 1 358 359 24 82 74 89 101 106 111 113 110 104 103 103 104 106 106 94 342 299 295 289 299 296 282 270 275 285 293 299 303 304 307 308
68 26 35 336 20 24 103 47 41 39 10 348 292 32 60 43 13 335 337 347 3 34 94 93 89 95 86 82 88 92 96 91 78 84 83 70 68 62 58 43 5 343 332 315 306 299 296 295 298 300 301 303 305 307
36 356 352 360 35 47 45 46 63 34 1 6 71 65 81 56 30 21 9 17 39 71 105 100 86 83 84 82 83 80 80 71 74 68 62 81 107 61 7 331 322 315 310 306 304 302 300 298 299 298 298 300 303 305
2 359 358 10 46 35 10 17 20 18 47 61 87 106 105 82 44 32 32 41 58 69 79 79 85 74 80 86 78 72 64 52 51 55 67 30 8 348 333 321 314 309 306 303 301 297 293 292 291 289 290 292 295 297
352 351 19 32 74 33 11 25 66 75 72 72 100 104 118 113 45 28 30 44 59 63 63 57 50 42 37 46 50 59 68 68 75 17 338 324 320 319 316 314 312 309 306 303 301 299 297 295 294 294 294 295 296 297
355 15 4 32 23 24 27 24 47 63 60 57 56 75 87 84 66 34 44 58 67 67 60 52 50 43 44 52 60 49 358 319 310 308 306 308 308 308 308 307 307 305 303 300 298 297 296 295 295 296 296 296 296 296
341 4 19 359 12 23 3 1 100 98 71 69 52 59 65 73 81 35 31 18 25 23 19 16 15 10 14 8 347 342 333 324 319 315 311 308 307 308 309 309 307 305 303 301 300 301 301 300 299 298 298 297 297 297
Wind_Speed_850mb
51 57 54 55 54 46 57 58 43 41 48 46 45 46 41 37 35 35 30 28 35 14 13 15 19 19 20 26 9 18 12 1 5 6 7 7 6 11 4 7 14 14 14 9 5 3 15 22 10 13 14 13 12 18
57 46 44 47 50 58 54 57 53 50 54 53 46 46 46 40 31 45 49 42 40 27 9 19 41 31 25 38 35 47 14 17 22 6 2 6 1 2 9 7 3 2 14 10 20 14 13 34 20 32 34 24 24 29
64 62 58 50 42 39 44 47 45 55 51 44 53 54 52 44 41 45 51 36 35 27 29 50 48 42 40 36 36 26 16 24 22 18 16 7 7 7 7 10 3 9 8 8 2 12 27 49 58 59 54 54 63 63
59 52 56 63 59 51 45 36 35 39 40 49 52 45 41 47 49 47 55 53 46 11 9 24 40 43 55 59 56 51 35 39 28 37 9 5 5 20 8 10 13 21 11 16 18 32 45 54 66 73 69 62 58 58
61 56 58 54 59 64 58 56 45 35 35 33 38 42 50 46 45 49 55 66 63 47 8 12 24 39 38 55 73 69 60 43 38 14 7 9 11 6 4 2 15 43 35 23 27 48 37 42 56 58 48 47 48 54
59 65 55 56 54 57 53 48 46 43 41 46 45 36 34 35 37 39 38 68 64 56 17 7 17 29 44 54 66 82 87 65 44 18 10 13 41 23 8 10 40 66 67 73 54 70 64 69 68 63 57 64 65 58
57 57 54 48 48 49 49 46 44 42 40 37 37 39 39 38 39 48 10 5 37 65 19 5 7 18 50 60 62 57 58 45 52 29 20 22 14 25 7 20 60 59 61 65 68 67 53 69 51 63 53 52 48 41
53 55 52 45 41 39 40 41 42 40 36 36 38 39 37 38 40 53 60 49 13 50 18 5 5 4 31 24 18 36 28 32 27 22 12 20 16 16 13 36 63 60 65 68 73 74 74 69 56 53 52 47 44 44
46 54 46 41 39 40 38 35 32 31 33 32 32 33 34 40 42 47 41 43 46 35 8 9 9 7 28 10 14 17 22 7 16 9 10 18 8 14 27 49 49 64 57 67 63 58 56 58 58 47 40 40 42 44
43 39 41 41 36 31 30 29 31 28 27 24 27 20 15 24 35 20 27 24 43 41 27 8 20 9 30 20 11 16 13 6 6 11 17 11 19 68 65 67 70 69 61 48 46 45 45 45 45 40 40 38 38 38
31 39 37 34 31 31 32 35 36 33 26 30 22 18 16 22 35 24 16 17 17 8 24 28 45 11 24 9 8 20 7 7 7 9 17 8 11 38 75 78 83 78 71 56 51 49 44 38 35 33 32 31 30 30
35 33 26 24 23 20 26 29 35 42 31 24 15 17 22 21 13 12 11 4 9 13 16 11 20 38 24 17 7 15 10 10 12 11 8 7 23 44 49 62 64 58 53 51 48 42 36 32 28 26 26 27 27 27
5 18 22 23 24 26 29 31 32 33 34 29 17 12 12 14 13 16 13 4 4 7 21 25 4 26 16 18 7 10 15 13 15 10 9 11 17 44 59 56 50 47 45 43 38 35 31 27 24 23 24 24 23 23
8 13 18 23 27 29 33 38 39 37 30 16 12 13 11 7 9 7 9 11 14 20 47 41 15 8 13 10 6 9 7 7 10 9 14 7 38 48 50 50 46 44 39 35 32 29 26 23 21 21 21 20 20 22
9 15 17 20 24 27 32 37 39 41 21 13 10 9 10 7 4 8 10 13 14 22 40 14 8 14 4 7 8 5 7 8 11 11 8 27 45 48 48 45 41 37 34 32 29 25 21 18 16 15 16 18 20 23
10 9 16 22 30 31 31 32 37 46 14 18 15 4 7 5 8 6 1 6 17 30 19 8 6 7 10 8 11 13 11 13 10 7 7 12 23 34 36 33 29 28 28 27 25 21 19 16 13 12 13 16 19 21
9 3 11 21 22 24 30 33 30 19 15 10 4 17 13 12 10 8 4 2 15 24 6 5 10 15 4 5 8 8 9 7 4 3 7 7 17 22 26 26 26 25 25 24 22 19 14 10 7 8 12 15 17 19
8 3 6 10 15 19 21 23 16 6 6 7 2 3 8 14 20 15 21 24 21 10 3 3 6 7 7 9 6 4 5 10 11 7 12 14 14 17 17 18 21 20 19 18 16 15 12 7 5 6 10 12 13 14
11 7 15 13 12 11 10 5 4 6 3 5 8 6 3 5 13 15 16 19 19 13 9 5 6 4 2 5 5 3 8 6 10 11 11 15 16 16 18 19 17 18 17 15 12 8 5 3 3 4 6 7 7 8
5 18 16 12 14 8 7 7 6 7 4 4 10 8 1 5 11 11 10 12 14 6 3 3 1 4 4 3 5 6 4 8 15 18 14 18 20 19 18 16 15 13 11 9 7 6 4 3 2 1 1 3 5 7
20 23 11 13 9 7 10 6 9 8 8 7 9 5 2 6 5 9 7 9 5 9 4 7 5 6 5 4 6 9 10 12 6 4 7 22 22 20 15 14 12 10 8 7 6 6 7 5 3 0 2 5 7 8
19 18 13 9 7 8 12 11 9 8 5 7 6 5 8 4 8 8 7 13 11 9 8 5 2 4 6 7 11 12 12 12 12 11 11 14 18 17 16 12 11 11 11 10 8 6 5 4 3 3 4 5 6 7
24 16 8 8 8 10 6 7 5 6 5 1 3 6 5 4 7 5 9 10 9 16 11 5 2 4 6 7 9 9 9 10 11 12 14 15 17 16 15 16 16 12 9 6 5 4 4 4 4 4 3 4 6 8
15 9 12 11 16 4 4 7 6 6 6 6 4 4 5 4 10 5 7 7 16 20 13 7 7 6 7 7 9 11 12 14 15 19 23 19 21 24 21 15 11 8 5 4 3 3 4 3 2 2 4 7 10 11
8 20 14 13 15 9 8 6 6 6 5 5 5 6 6 10 5 7 4 10 23 26 17 10 10 6 4 7 11 14 16 18 19 21 22 20 17 15 12 8 5 2 1 2 4 4 3 2 3 6 9 12 13 13
15 18 11 4 10 6 6 4 7 5 4 5 3 4 4 2 7 5 3 21 17 22 16 11 14 13 12 16 19 22 23 21 18 15 15 13 10 6 4 3 3 1 1 3 4 5 6 7 9 12 14 16 18 21
11 9 14 16 9 5 6 5 2 4 8 8 6 8 5 8 7 4 10 25 23 18 7 7 12 15 18 19 19 17 15 14 13 10 10 8 5 3 1 2 3 3 3 4 5 7 9 13 16 18 21 21 22 26
10 20 6 23 11 13 5 5 7 7 5 10 4 10 6 6 2 14 12 25 19 10 10 12 14 14 14 13 13 14 13 11 10 10 11 9 6 5 4 3 3 4 4 6 8 11 14 18 21 25 29 33 33 32
11 25 13 8 8 13 11 6 2 5 9 7 4 5 5 10 24 28 22 15 12 9 10 11 13 12 10 11 11 10 8 8 6 7 6 5 3 3 2 5 8 10 12 14 17 20 24 28 31 35 40 43 46 49
16 26 11 9 7 8 8 9 5 6 9 10 12 22 25 24 50 53 35 18 13 14 13 11 10 11 10 7 7 7 6 6 7 8 6 6 8 9 11 14 17 20 25 28 30 32 34 39 43 46 50 54 57 58
19 18 5 10 6 7 11 9 10 12 9 11 15 14 10 7 26 65 50 28 23 21 19 20 17 14 10 9 9 8 8 7 6 5 9 13 17 22 25 29 31 34 36 40 43 46 49 51 53 55 57 59 58 57
19 15 8 7 5 9 13 13 6 6 7 7 8 6 7 10 12 32 59 51 48 51 49 42 37 33 23 19 16 11 8 14 19 24 27 33 38 43 46 47 47 49 49 50 51 52 53 56 58 60 62 62 61 61
9 11 8 5 5 6 16 12 3 6 7 6 9 10 12 10 11 15 24 39 39 42 41 40 38 29 22 19 17 22 25 27 29 33 38 43 47 51 52 52 52 52 54 56 58 59 60 60 61 61 61 62 62 62
Wind_Direction_850mb
249 239 237 230 231 231 233 236 229 234 243 239 227 212 206 206 202 203 213 205 202 213 226 208 205 164 153 162 133 152 92 339 64 129 142 207 165 221 131 211 178 161 168 202 94 181 270 195 122 166 216 179 211 226
240 233 236 242 242 225 224 221 226 227 228 228 228 224 220 217 222 215 219 225 217 227 255 225 228 217 210 206 178 168 183 159 164 121 196 113 233 56 164 228 186 276 201 184 188 204 213 186 204 248 253 236 248 255
233 241 238 237 239 237 232 236 229 221 223 227 228 227 217 217 222 219 226 209 204 231 255 255 242 231 215 208 219 182 207 182 188 186 163 189 200 119 163 241 154 266 192 212 47 215 240 260 265 268 263 259 275 279
227 231 234 235 235 237 233 236 233 234 233 229 226 225 227 229 232 224 224 236 230 197 228 268 252 240 233 222 216 214 223 209 209 192 160 149 179 187 211 222 198 225 161 227 255 258 260 264 264 268 270 274 276 281
232 231 231 227 228 232 236 231 227 227 230 231 237 237 230 229 231 230 229 227 230 204 208 235 241 238 227 219 216 216 218 214 191 159 187 204 205 147 248 146 235 234 236 240 251 251 237 252 263 272 266 268 281 282
231 232 230 227 223 223 223 219 223 228 233 235 239 241 242 239 234 233 234 234 229 227 227 206 226 209 216 216 215 217 220 216 204 191 195 226 240 189 202 227 242 244 246 245 246 257 260 259 266 274 268 278 284 277
226 224 224 227 229 226 220 218 223 224 228 233 235 234 235 238 229 218 222 196 210 218 215 214 228 211 217 214 218 218 219 212 216 221 219 218 204 193 225 243 252 251 249 255 258 257 259 259 259 272 269 274 268 259
215 216 216 218 225 223 220 219 215 221 225 233 238 236 234 234 235 234 236 239 212 198 212 237 198 164 179 184 178 198 200 206 205 214 225 215 222 214 241 243 252 254 259 258 253 259 258 263 262 259 262 258 260 266
218 196 205 209 211 214 217 227 230 230 233 234 232 231 231 228 228 236 231 234 244 219 222 178 162 217 166 139 155 160 184 208 195 209 208 170 190 217 222 237 243 247 243 253 263 262 259 257 257 255 254 258 260 262
196 195 201 203 202 200 206 212 218 216 221 212 209 200 213 215 218 198 195 205 203 209 214 188 188 180 164 159 159 138 183 196 210 226 160 214 228 235 240 248 252 256 256 259 251 248 246 244 248 252 263 263 262 263
189 190 181 175 196 210 223 221 214 221 215 202 196 208 194 166 169 182 197 205 188 201 190 201 190 148 178 154 166 192 177 182 204 234 181 214 243 236 240 243 249 254 261 261 254 252 259 260 260 254 254 256 256 254
179 162 172 191 205 218 217 211 206 204 199 194 182 189 174 194 206 205 185 219 175 206 183 157 180 191 164 164 142 179 182 190 218 144 159 226 243 240 237 239 243 246 251 253 254 255 253 250 248 243 242 244 246 250
164 179 199 210 222 222 217 206 201 203 193 190 196 193 191 202 223 185 190 214 162 170 161 158 156 158 150 176 175 180 203 207 117 187 218 223 222 225 227 229 228 231 234 237 241 242 241 239 236 238 239 242 250 259
224 229 232 231 227 222 215 210 197 193 189 194 184 195 202 210 232 186 196 203 198 177 170 172 128 147 163 179 182 211 179 129 201 206 225 226 213 220 215 213 214 216 221 226 227 226 226 224 225 226 233 245 259 270
226 228 229 233 232 229 222 212 206 201 193 186 198 228 210 246 139 158 178 149 165 198 158 128 109 149 153 199 187 107 181 222 208 223 223 224 223 212 199 199 210 216 215 212 212 211 212 215 218 230 246 262 273 282
242 257 225 233 230 225 226 221 216 217 204 193 210 129 155 91 329 8 256 146 142 157 157 143 162 184 200 195 172 201 168 216 237 217 274 206 184 184 190 191 194 199 201 199 198 203 204 204 222 247 269 285 295 301
12 204 230 218 216 219 226 218 222 214 216 196 176 186 145 141 145 143 164 161 163 164 163 155 195 203 121 195 187 176 209 226 299 110 127 127 156 169 178 186 186 188 190 191 191 192 196 209 234 272 292 300 305 310
269 279 18 215 215 203 208 201 214 200 85 57 149 37 172 172 157 159 167 164 170 204 241 233 160 184 206 186 232 214 120 112 109 118 119 144 153 161 167 181 175 176 179 182 185 189 193 211 258 285 296 309 315 320
295 263 222 219 204 157 151 148 163 108 96 112 108 124 208 165 163 176 190 195 188 178 178 166 246 221 248 26 59 70 108 190 189 175 148 142 144 155 161 163 164 168 171 173 181 196 202 226 266 303 318 324 320 321
259 244 240 196 178 157 114 80 103 96 97 114 109 118 121 101 125 130 145 163 169 172 190 190 70 36 30 129 109 118 140 150 156 137 149 160 159 158 156 156 162 166 174 182 188 190 177 177 186 177 19 359 340 329
267 231 231 172 146 95 91 82 71 84 113 100 107 121 119 106 87 72 85 116 111 39 59 40 77 103 109 114 124 128 140 148 171 169 180 175 165 159 163 168 167 173 182 180 175 176 172 172 165 131 328 324 322 323
180 174 157 153 100 84 82 59 81 94 93 96 86 64 48 36 30 31 48 55 52 27 24 22 100 105 115 123 124 128 119 118 106 105 118 147 166 174 177 171 172 168 162 155 159 177 205 228 259 294 298 299 312 317
137 139 90 70 91 58 46 65 78 44 81 347 85 61 26 25 11 62 77 64 60 8 7 21 80 128 130 124 124 124 121 113 117 125 125 135 143 148 150 153 145 143 144 157 184 215 250 263 269 273 288 309 317 321
109 66 41 45 36 68 65 46 53 67 62 37 63 61 359 312 353 57 80 54 12 13 22 47 64 76 107 117 124 126 127 128 128 124 119 120 130 129 129 135 134 137 154 200 216 244 239 230 241 289 310 314 317 321
86 13 20 8 21 28 42 23 12 52 50 337 63 23 341 346 65 55 62 357 5 14 22 40 39 42 91 113 121 122 121 119 122 124 121 117 112 116 117 117 121 127 224 261 241 231 226 241 284 300 307 312 314 315
69 11 39 322 357 59 0 58 31 15 358 68 38 297 338 41 63 46 315 348 352 4 14 38 50 63 86 109 114 114 113 114 113 115 114 115 116 121 132 154 172 242 311 307 279 244 246 265 287 299 305 308 311 313
54 343 13 26 0 332 36 16 354 27 48 28 350 348 358 65 55 300 353 1 358 359 24 82 74 89 101 106 111 113 110 104 103 103 104 106 106 94 342 299 295 289 299 296 282 270 275 285 293 299 303 304 307 308
68 26 35 336 20 24 103 47 41 39 10 348 292 32 60 43 13 335 337 347 3 34 94 93 89 95 86 82 88 92 96 91 78 84 83 70 68 62 58 43 5 343 332 315 306 299 296 295 298 300 301 303 305 307
36 356 352 360 35 47 45 46 63 34 1 6 71 65 81 56 30 21 9 17 39 71 105 100 86 83 84 82 83 80 80 71 74 68 62 81 107 61 7 331 322 315 310 306 304 302 300 298 299 298 298 300 303 305
2 359 358 10 46 35 10 17 20 18 47 61 87 106 105 82 44 32 32 41 58 69 79 79 85 74 80 86 78 72 64 52 51 55 67 30 8 348 333 321 314 309 306 303 301 297 293 292 291 289 290 292 295 297
352 351 19 32 74 33 11 25 66 75 72 72 100 104 118 113 45 28 30 44 59 63 63 57 50 42 37 46 50 59 68 68 75 17 338 324 320 319 316 314 312 309 306 303 301 299 297 295 294 294 294 295 296 297
355 15 4 32 23 24 27 24 47 63 60 57 56 75 87 84 66 34 44 58 67 67 60 52 50 43 44 52 60 49 358 319 310 308 306 308 308 308 308 307 307 305 303 300 298 297 296 295 295 296 296 296 296 296
341 4 19 359 12 23 3 1 100 98 71 69 52 59 65 73 81 35 31 18 25 23 19 16 15 10 14 8 347 342 333 324 319 315 311 308 307 308 309 309 307 305 303 301 300 301 301 300 299 298 298 297 297 297